TimeCDT,TemperatureF,Dew PointF,Humidity,Sea Level PressureIn,VisibilityMPH,Wind Direction,Wind SpeedMPH,Gust SpeedMPH,PrecipitationIn,Events,Conditions,WindDirDegrees,DateUTC
12:53 AM,52.0,26.1,37,29.89,10.0,South,15.0,-,N/A,,Clear,180,2013-04-26 05:53:00
1:53 AM,51.8,26.6,38,29.93,10.0,South,8.1,-,N/A,,Clear,190,2013-04-26 06:53:00
2:53 AM,50.0,27.0,41,29.91,10.0,SE,3.5,-,N/A,,Clear,130,2013-04-26 07:53:00
3:53 AM,46.9,26.1,44,29.94,10.0,West,9.2,-,N/A,,Clear,270,2013-04-26 08:53:00
4:53 AM,39.0,27.0,62,29.96,10.0,SW,3.5,-,N/A,,Clear,230,2013-04-26 09:53:00
5:53 AM,39.9,28.0,63,29.96,10.0,SSW,3.5,-,N/A,,Clear,210,2013-04-26 10:53:00
6:53 AM,34.0,27.0,75,29.99,10.0,NNW,3.5,-,N/A,,Clear,330,2013-04-26 11:53:00
7:53 AM,37.9,30.9,76,30.01,10.0,WNW,5.8,-,N/A,,Clear,300,2013-04-26 12:53:00
8:53 AM,48.0,33.1,56,30.02,10.0,WNW,6.9,-,N/A,,Clear,300,2013-04-26 13:53:00
9:53 AM,60.1,35.1,39,30.01,10.0,WNW,4.6,-,N/A,,Clear,290,2013-04-26 14:53:00
10:53 AM,71.1,24.1,17,30.01,10.0,NNE,18.4,-,N/A,,Clear,30,2013-04-26 15:53:00
11:53 AM,73.0,23.0,15,30.04,10.0,NE,16.1,27.6,N/A,,Clear,40,2013-04-26 16:53:00
12:53 PM,73.0,23.0,15,30.04,10.0,NNE,17.3,29.9,N/A,,Clear,30,2013-04-26 17:53:00
1:53 PM,73.9,23.0,15,30.04,10.0,NE,16.1,23.0,N/A,,Clear,40,2013-04-26 18:53:00
2:53 PM,75.0,23.0,14,30.04,10.0,North,18.4,25.3,N/A,,Clear,360,2013-04-26 19:53:00
3:53 PM,75.0,23.0,14,30.04,10.0,NNE,10.4,21.9,N/A,,Clear,30,2013-04-26 20:53:00
4:53 PM,75.0,24.1,15,30.06,10.0,NNE,8.1,16.1,N/A,,Clear,30,2013-04-26 21:53:00
5:53 PM,73.0,24.1,16,30.06,10.0,ENE,12.7,20.7,N/A,,Clear,60,2013-04-26 22:53:00
6:53 PM,72.0,24.1,17,30.09,10.0,NE,9.2,18.4,N/A,,Clear,40,2013-04-26 23:53:00
7:53 PM,68.0,27.0,21,30.10,10.0,NE,9.2,-,N/A,,Clear,50,2013-04-27 00:53:00
8:53 PM,55.0,27.0,34,30.13,10.0,ENE,6.9,-,N/A,,Clear,60,2013-04-27 01:53:00
9:53 PM,54.0,27.0,35,30.13,10.0,Calm,Calm,-,N/A,,Clear,0,2013-04-27 02:53:00
10:53 PM,46.9,28.9,50,30.14,10.0,Calm,Calm,-,N/A,,Clear,0,2013-04-27 03:53:00
11:53 PM,42.1,28.9,60,30.14,10.0,East,5.8,-,N/A,,Clear,100,2013-04-27 04:53:00